[[{"header":{"parameterUnit":"m.s-1","parameterCategory":1,"la1":30.2991,"la2":30.254,"lo1":-89.0895,"lo2":-89.0444,"dy":0.0017,"dx":0.0017,"nx":28,"ny":28,"refTime":"2023-10-12T21:00:00:Z","depth":0,"parameterNumber":2,"parameterNumberName":"U-component_of_WINDS"},"data":[0,0,0,0,0,0,0,0,0,0,0,0,0,0,0,0,0,0,0,0,0,0,0,0,0,0,0,0,0,0,0,0,0,0,0,0,0,0,0,0,0,0,0,0,0,0,0,0,0,0,0,0,0,0,0,0,0,0,-3.3426,-3.3426,0,-3.3407,-3.3407,-3.3406,-3.3283,-3.328,-3.3277,-3.3274,-3.3257,-3.3259,-3.3261,0,0,0,0,0,0,0,0,0,0,0,0,0,-3.3358,-3.336,-3.3426,-3.3426,-3.3426,-3.3407,-3.3407,-3.3406,-3.3283,-3.328,-3.3276,-3.3272,-3.3256,-3.3259,-3.3262,0,0,0,0,0,0,0,0,0,0,0,0,0,-3.3368,-3.336,-3.3426,-3.3362,-3.3356,-3.3407,-3.3407,-3.3406,-3.3284,-3.3279,-3.3275,-3.3271,-3.3255,-3.3258,-3.3262,-3.3374,0,0,-3.3273,-3.3274,0,0,0,0,0,0,0,0,-3.3368,-3.3371,-3.3372,-3.3366,-3.336,-3.3342,-3.3376,-3.3396,-3.3285,-3.3311,-3.3274,-3.3269,-3.3289,-3.329,-3.3296,-3.3373,-3.3373,-3.3273,-3.3275,-3.3277,-3.3278,0,0,0,0,0,0,0,-3.3367,-3.3371,-3.3419,-3.3372,-3.3365,-3.3335,-3.3331,-3.3379,-3.3326,-3.3309,-3.33,-3.3299,-3.3285,-3.3293,-3.3295,-3.3372,-3.3273,-3.3276,-3.3278,-3.328,-3.354,-3.3544,0,0,0,0,0,0,-3.3375,-3.3371,-3.3419,-3.3418,-3.3353,-3.3339,-3.3335,-3.3353,-3.3325,-3.3316,-3.3303,-3.3293,-3.3289,-3.3291,-3.3294,-3.3422,-3.3277,-3.328,-3.3282,-3.3535,-3.3541,-3.3546,0,0,0,0,0,0,-3.3374,-3.3381,-3.342,-3.3392,-3.3395,-3.3345,-3.3366,-3.3355,-3.3362,-3.332,-3.3311,-3.3321,-3.3286,-3.3289,-3.3354,-3.342,-3.3282,-3.3285,-3.3529,-3.3537,-3.3543,-3.3681,0,0,0,0,0,0,-3.3373,-3.3381,-3.3423,-3.3394,-3.3397,-3.3481,-3.337,-3.3358,-3.3368,-3.3356,-3.3334,-3.3327,-3.3282,-3.335,-3.3358,-3.3422,-3.3287,-3.3523,-3.3533,-3.3541,-3.3671,-3.3692,-3.3711,0,0,0,0,0,-3.3371,-3.3463,-3.3426,-3.3432,-3.3448,-3.3485,-3.3487,-3.3433,-3.3374,-3.3416,-3.3389,-3.3327,-3.3412,-3.3358,-3.3366,-3.3432,-3.3519,-3.353,-3.354,-3.3662,-3.3688,-3.371,0,0,0,0,0,0,-3.3502,-3.3458,-3.3416,-3.3502,-3.3498,-3.3464,-3.3515,-3.3463,-3.3477,-3.3464,-3.3398,-3.3394,-3.347,-3.3457,-3.3398,-3.3539,-3.3454,-3.3467,-3.3544,-3.3569,-3.3588,-3.359,-3.329,0,0,0,0,0,-3.3541,-3.3575,-3.3534,-3.3614,-3.3614,-3.3566,-3.358,-3.3539,-3.3532,-3.353,-3.3508,-3.3505,-3.353,-3.3549,-3.357,-3.3668,-3.3662,-3.3718,-3.3738,-3.3754,-3.3766,-3.3817,-3.3841,-3.3581,-3.3581,-3.3581,0,0,-3.3622,-3.3602,-3.3627,-3.364,-3.3632,-3.3668,-3.3565,-3.3608,-3.3634,-3.3537,-3.3597,-3.3582,-3.3574,-3.3656,-3.3691,-3.3648,-3.3837,-3.3768,-3.3782,-3.3785,-3.383,-3.3855,-3.3877,-3.3589,-3.3587,-3.3586,0,0,-3.3788,-3.3776,-3.3841,-3.3835,-3.3824,-3.379,-3.3806,-3.378,-3.3765,-3.3825,-3.3752,-3.3783,-3.3829,-3.3826,-3.383,-3.3994,-3.3938,-3.4003,-3.4108,-3.4158,-3.4178,-3.4196,-3.4254,-3.4276,-3.4015,-3.4016,-3.4016,0,-3.389,-3.3941,-3.3881,-3.3928,-3.3936,-3.3848,-3.3913,-3.391,-3.3908,-3.3915,-3.3867,-3.3921,-3.391,-3.399,-3.403,-3.4037,-3.4053,-3.4005,-3.418,-3.4197,-3.4213,-3.4268,-3.429,-3.4023,-3.4023,-3.4022,-3.4021,0,-3.4067,-3.4103,-3.4157,-3.4155,-3.4168,-3.4225,-3.4173,-3.4194,-3.4152,-3.4124,-3.4186,-3.4169,-3.4185,-3.4201,-3.4161,-3.4276,-3.4249,-3.4192,-3.4105,-3.4247,-3.4297,-3.4317,-3.4035,-3.4032,-3.403,-3.4028,0,0,-3.4315,-3.4278,-3.4299,-3.4296,-3.4278,-3.4305,-3.4357,-3.4372,-3.4391,-3.4392,-3.4434,-3.4475,-3.4421,-3.4426,-3.4385,-3.4429,-3.4559,-3.4365,-3.4364,-3.4401,-3.4684,-3.4727,-3.4752,-3.4521,-3.4525,-3.4528,-3.4684,0,-3.4473,-3.4559,-3.4506,-3.4601,-3.4633,-3.455,-3.4596,-3.459,-3.4565,-3.459,-3.4563,-3.4592,-3.4519,-3.4522,-3.4561,-3.4535,-3.4615,-3.4523,-3.456,-3.4562,-3.4564,-3.4778,-3.4824,-3.4972,-3.4704,-3.4707,-3.4709,0,-3.467,-3.4678,-3.4775,-3.4749,-3.4761,-3.4802,-3.4811,-3.4835,-3.4827,-3.4806,-3.4812,-3.4759,-3.4809,-3.4724,-3.4792,-3.473,-3.4743,-3.4732,-3.4736,-3.4738,-3.4644,-3.4785,-3.5018,-3.504,-3.474,-3.4737,-3.4735,0,-3.484,-3.4876,-3.4938,-3.4939,-3.491,-3.4941,-3.4931,-3.4917,-3.4929,-3.4937,-3.4944,-3.4959,-3.4967,-3.4979,-3.4932,-3.4875,-3.5006,-3.4917,-3.499,-3.4991,-3.5021,-3.502,-3.5259,-3.503,-3.503,-3.5029,-3.5029,0,-3.5022,-3.5085,-3.5014,-3.5053,-3.512,-3.5059,-3.5128,-3.5109,-3.5098,-3.5131,-3.5061,-3.5094,-3.503,-3.5057,-3.5021,-3.5082,-3.5086,-3.5071,-3.506,-3.5077,-3.5079,-3.5084,-3.5072,-3.5035,-3.5034,-3.5033,-3.5032,0,-3.5224,-3.5179,-3.5241,-3.5209,-3.5202,-3.5253,-3.5225,-3.526,-3.523,-3.5274,-3.528,-3.5234,-3.5262,-3.5216,-3.524,-3.5215,-3.53,-3.5274,-3.5303,-3.5295,-3.537,-3.5363,-3.562,-3.5651,-3.5403,-3.5406,-3.5408,0,-3.5343,-3.5389,-3.5361,-3.5377,-3.5371,-3.5399,-3.541,-3.5352,-3.5367,-3.536,-3.5396,-3.5417,-3.5431,-3.548,-3.5449,-3.5467,-3.544,-3.5529,-3.5442,-3.5457,-3.5441,-3.5438,-3.5442,-3.5547,-3.555,-3.5552,-3.5554,0,-3.5558,-3.5533,-3.5552,-3.5563,-3.5578,-3.5584,-3.5585,-3.5603,-3.5541,-3.5562,-3.5589,-3.56,-3.5623,-3.5645,-3.5655,-3.5645,-3.559,-3.5582,-3.5599,-3.5616,-3.5631,-3.5623,-3.5351,-3.5576,-3.5574,-3.5572,-3.5571,-3.557,-3.5722,-3.5758,-3.5744,-3.5766,-3.5761,-3.5763,-3.5794,-3.5767,-3.5788,-3.5801,-3.5766,-3.5802,-3.5791,-3.5798,-3.5794,-3.5821,-3.5782,-3.5808,-3.5814,-3.5821,-3.5833,-3.5627,-3.5823,-3.5822,-3.5822,-3.5821,-3.5821,0,-3.5933,-3.5919,-3.594,-3.5943,-3.5961,-3.5907,-3.5905,-3.5924,-3.5956,-3.595,-3.5965,-3.5997,-3.6018,-3.5989,-3.6005,-3.6033,-3.6008,-3.6039,-3.6036,-3.6035,-3.5867,-3.585,-3.6059,-3.6059,-3.6059,-3.6059,-3.6059,-3.6059,-3.6044,-3.6103,-3.6077,-3.6132,-3.6118,-3.6151,-3.6155,-3.6157,-3.6152,-3.6189,-3.6206,-3.6187,-3.6172,-3.6187,-3.6204,-3.6195,-3.6204,-3.6244,-3.6226,-3.607,-3.6047,-3.6025,-3.6008,-3.6247,-3.6247,-3.6391,-3.6393,-3.6394]},{"header":{"parameterUnit":"m.s-1","parameterCategory":1,"la1":30.2991,"la2":30.254,"lo1":-89.0895,"lo2":-89.0444,"dy":0.0017,"dx":0.0017,"nx":28,"ny":28,"refTime":"2023-10-12T21:00:00:Z","depth":0,"parameterNumber":3,"parameterNumberName":"V-component_of_WINDS"},"data":[0,0,0,0,0,0,0,0,0,0,0,0,0,0,0,0,0,0,0,0,0,0,0,0,0,0,0,0,0,0,0,0,0,0,0,0,0,0,0,0,0,0,0,0,0,0,0,0,0,0,0,0,0,0,0,0,0,0,-3.4162,-3.4163,0,-3.4301,-3.4302,-3.4304,-3.4313,-3.4311,-3.431,-3.4308,-3.4449,-3.4454,-3.4459,0,0,0,0,0,0,0,0,0,0,0,0,0,-3.3902,-3.3906,-3.4162,-3.4164,-3.4165,-3.43,-3.4302,-3.4304,-3.4313,-3.4311,-3.431,-3.4308,-3.4447,-3.4453,-3.446,0,0,0,0,0,0,0,0,0,0,0,0,0,-3.4025,-3.3908,-3.4161,-3.4186,-3.419,-3.43,-3.4302,-3.4305,-3.4314,-3.4311,-3.4309,-3.4307,-3.4445,-3.4453,-3.4461,-3.4555,0,0,-3.4484,-3.4488,0,0,0,0,0,0,0,0,-3.4018,-3.4034,-3.4181,-3.4185,-3.4189,-3.4287,-3.4262,-3.4389,-3.4314,-3.4267,-3.4308,-3.4306,-3.4397,-3.4409,-3.444,-3.4562,-3.4568,-3.4485,-3.449,-3.4493,-3.4495,0,0,0,0,0,0,0,-3.4009,-3.4029,-3.4217,-3.4183,-3.4188,-3.4189,-3.4204,-3.4286,-3.4343,-3.4271,-3.4272,-3.4288,-3.4399,-3.4432,-3.4443,-3.457,-3.4485,-3.4492,-3.4497,-3.45,-3.4776,-3.4778,0,0,0,0,0,0,-3.3996,-3.4021,-3.4212,-3.4221,-3.4096,-3.4196,-3.4213,-3.4258,-3.4342,-3.4353,-3.429,-3.4288,-3.442,-3.4434,-3.4448,-3.4564,-3.4493,-3.45,-3.4505,-3.4773,-3.4776,-3.4779,0,0,0,0,0,0,-3.3991,-3.4013,-3.4207,-3.4122,-3.4146,-3.4203,-3.4254,-3.4262,-3.4295,-3.4357,-3.4367,-3.4314,-3.4419,-3.4437,-3.4528,-3.4569,-3.4504,-3.4511,-3.477,-3.4774,-3.4778,-3.4797,0,0,0,0,0,0,-3.3983,-3.4011,-3.4049,-3.4122,-3.4151,-3.4286,-3.4256,-3.4266,-3.4309,-3.4308,-3.4382,-3.4392,-3.4418,-3.4517,-3.4536,-3.4579,-3.4517,-3.4766,-3.4772,-3.4776,-3.4793,-3.4801,-3.4808,0,0,0,0,0,-3.3974,-3.4049,-3.4051,-3.4074,-3.4199,-3.4288,-3.4304,-3.4334,-3.4312,-3.435,-3.4389,-3.439,-3.4561,-3.4526,-3.4548,-3.4593,-3.4764,-3.477,-3.4776,-3.479,-3.48,-3.4808,0,0,0,0,0,0,-3.3978,-3.4059,-3.4062,-3.4163,-3.4218,-3.4289,-3.4338,-3.4343,-3.4406,-3.4402,-3.4435,-3.4452,-3.4542,-3.4577,-3.4536,-3.4689,-3.466,-3.4671,-3.4663,-3.4673,-3.468,-3.467,-3.4524,0,0,0,0,0,-3.3991,-3.4057,-3.4124,-3.4206,-3.4234,-3.4281,-3.4321,-3.4339,-3.4398,-3.4421,-3.4467,-3.4524,-3.459,-3.4633,-3.4698,-3.4798,-3.4813,-3.484,-3.4847,-3.4853,-3.4862,-3.4916,-3.4928,-3.4799,-3.4799,-3.4798,0,0,-3.4018,-3.407,-3.411,-3.4208,-3.4254,-3.4321,-3.4301,-3.4373,-3.4423,-3.4432,-3.4521,-3.4556,-3.4622,-3.4717,-3.4762,-3.4749,-3.4901,-3.4861,-3.4865,-3.4871,-3.4923,-3.4936,-3.4946,-3.4803,-3.4802,-3.4801,0,0,-3.4101,-3.4148,-3.4221,-3.4267,-3.4336,-3.4366,-3.4383,-3.4454,-3.4478,-3.4567,-3.4575,-3.4634,-3.4749,-3.4794,-3.4833,-3.4931,-3.4934,-3.4951,-3.4991,-3.5044,-3.5054,-3.5063,-3.5098,-3.511,-3.496,-3.496,-3.496,0,-3.4126,-3.4229,-3.4258,-3.433,-3.4373,-3.4384,-3.4457,-3.45,-3.4586,-3.4615,-3.4599,-3.4742,-3.4787,-3.4893,-3.4917,-3.4948,-3.4968,-3.4944,-3.505,-3.506,-3.5069,-3.5102,-3.5115,-3.4962,-3.4962,-3.4961,-3.4961,0,-3.4255,-3.4326,-3.4377,-3.446,-3.4508,-3.458,-3.462,-3.4665,-3.4678,-3.4709,-3.48,-3.4854,-3.4929,-3.4955,-3.4969,-3.5063,-3.5053,-3.5043,-3.5015,-3.5082,-3.5114,-3.5127,-3.4964,-3.4964,-3.4963,-3.4963,0,0,-3.4347,-3.4444,-3.4462,-3.45,-3.4575,-3.463,-3.4702,-3.4776,-3.4814,-3.4872,-3.4933,-3.5029,-3.502,-3.5063,-3.5082,-3.5128,-3.5201,-3.5112,-3.5114,-3.5127,-3.5308,-3.5314,-3.5329,-3.5203,-3.5206,-3.5208,-3.5302,0,-3.4439,-3.4569,-3.4596,-3.4708,-3.4773,-3.4783,-3.4846,-3.4898,-3.4929,-3.4988,-3.5022,-3.5089,-3.5073,-3.5099,-3.5145,-3.5183,-3.5238,-3.5176,-3.526,-3.5262,-3.5243,-3.5346,-3.5354,-3.544,-3.5315,-3.5317,-3.5318,0,-3.4564,-3.4625,-3.4743,-3.4809,-3.4837,-3.4893,-3.4962,-3.5019,-3.5078,-3.5097,-3.5145,-3.5158,-3.5232,-3.52,-3.5302,-3.5259,-3.5295,-3.5318,-3.5322,-3.5331,-3.5295,-3.5357,-3.5468,-3.5481,-3.5339,-3.5337,-3.5335,0,-3.4618,-3.473,-3.4815,-3.4847,-3.4926,-3.4965,-3.4999,-3.5056,-3.5098,-3.5158,-3.5186,-3.5253,-3.5291,-3.5342,-3.5373,-3.5347,-3.5472,-3.5443,-3.549,-3.5489,-3.5516,-3.5514,-3.5634,-3.5539,-3.5539,-3.5538,-3.5538,0,-3.4718,-3.479,-3.4841,-3.4893,-3.4973,-3.5003,-3.5081,-3.5116,-3.5166,-3.5224,-3.5237,-3.5291,-3.5328,-3.5387,-3.5411,-3.5492,-3.5508,-3.5525,-3.5531,-3.5525,-3.5522,-3.5548,-3.5543,-3.5542,-3.5541,-3.554,-3.554,0,-3.4793,-3.483,-3.4923,-3.499,-3.5008,-3.5064,-3.5121,-3.5172,-3.5202,-3.5275,-3.5294,-3.5342,-3.5412,-3.5447,-3.5535,-3.5551,-3.5642,-3.5643,-3.5622,-3.5624,-3.5669,-3.5664,-3.581,-3.5831,-3.5721,-3.5722,-3.5723,0,-3.4855,-3.491,-3.4983,-3.5023,-3.5058,-3.5122,-3.5165,-3.5196,-3.524,-3.5311,-3.5353,-3.5423,-3.5482,-3.5593,-3.5635,-3.5701,-3.5705,-3.5751,-3.5715,-3.5706,-3.5705,-3.5702,-3.5707,-3.5758,-3.5759,-3.576,-3.5761,0,-3.496,-3.4975,-3.5037,-3.5104,-3.5155,-3.521,-3.5264,-3.5295,-3.5335,-3.5384,-3.5455,-3.55,-3.5589,-3.5659,-3.5728,-3.5763,-3.5768,-3.5771,-3.5786,-3.578,-3.5765,-3.5774,-3.564,-3.5768,-3.5768,-3.5767,-3.5767,-3.5766,-3.503,-3.5079,-3.5138,-3.5205,-3.5249,-3.5299,-3.5349,-3.5385,-3.5446,-3.5521,-3.5535,-3.5611,-3.5667,-3.5761,-3.5797,-3.5857,-3.5847,-3.5867,-3.5873,-3.5877,-3.588,-3.5755,-3.5869,-3.5869,-3.5869,-3.5869,-3.5869,0,-3.5136,-3.5173,-3.5235,-3.531,-3.5363,-3.5363,-3.5422,-3.5466,-3.5533,-3.5585,-3.5642,-3.5724,-3.5791,-3.5838,-3.5906,-3.5944,-3.5948,-3.5961,-3.5958,-3.5966,-3.5885,-3.5866,-3.5956,-3.5956,-3.5956,-3.5956,-3.5956,-3.5956,-3.5197,-3.528,-3.5302,-3.5406,-3.5443,-3.5517,-3.5551,-3.5596,-3.5638,-3.5729,-3.5785,-3.5815,-3.5864,-3.5936,-3.5997,-3.6009,-3.6033,-3.6046,-3.6058,-3.5981,-3.5972,-3.5963,-3.5945,-3.6051,-3.6051,-3.6134,-3.6135,-3.6136]}]]